When you browse on this site, cookies collect data to enhance your experience and personalize the content and advertising you see.
Visit our Privacy Policy to learn more. By continuing to use the site, you agree to this use of cookies and data.
  • în România
  • Lista ţărilor
  • Pe 7 zile
  • Temperatura apei
  • Hartă satelitară
  • Meteo pe hartă
  • Widget-uri
  • user-avatar
    Intrare

    Meteo pe oră la Guduvancheri

    Astăzi, 25 Aprilie, Joi

    Timp Temperatura Precipitaţii Vânt Presiune Umiditate
    00:00 +30°C° 0 mm 2 m/s 753 mmHg 72%
    01:00 +30°C° 0 mm 2 m/s 753 mmHg 74%
    02:00 +29°C° 0 mm 1 m/s 752 mmHg 75%
    03:00 +29°C° 0 mm 1 m/s 753 mmHg 76%
    04:00 +29°C° 0 mm 1 m/s 753 mmHg 78%
    05:00 +29°C° 0 mm 1 m/s 753 mmHg 79%
    06:00 +30°C° 0 mm 1 m/s 753 mmHg 73%
    07:00 +31°C° 0 mm 1 m/s 753 mmHg 67%
    08:00 +32°C° 0 mm 2 m/s 754 mmHg 61%
    09:00 +35°C° 0 mm 2 m/s 754 mmHg 51%
    10:00 +37°C° 0 mm 2 m/s 754 mmHg 42%
    11:00 +39°C° 0 mm 2 m/s 754 mmHg 33%
    12:00 +40°C° 0 mm 3 m/s 753 mmHg 32%
    13:00 +41°C° 0 mm 4 m/s 752 mmHg 31%
    14:00 +42°C° 0 mm 5 m/s 752 mmHg 30%
    15:00 +40°C° 0 mm 5 m/s 751 mmHg 37%
    16:00 +39°C° 0 mm 5 m/s 751 mmHg 43%
    17:00 +36°C° 0 mm 5 m/s 751 mmHg 49%
    18:00 +35°C° 0 mm 5 m/s 752 mmHg 54%
    19:00 +34°C° 0 mm 5 m/s 752 mmHg 59%
    20:00 +32°C° 0 mm 4 m/s 753 mmHg 64%
    21:00 +32°C° 0 mm 4 m/s 753 mmHg 67%
    22:00 +32°C° 0 mm 4 m/s 753 mmHg 70%
    23:00 +31°C° 0 mm 3 m/s 753 mmHg 73%

    Mâine, 26 Aprilie, Vineri

    Timp Temperatura Precipitaţii Vânt Presiune Umiditate
    00:00 +30°C° 0 mm 3 m/s 752 mmHg 75%
    01:00 +30°C° 0 mm 2 m/s 752 mmHg 77%
    02:00 +30°C° 0 mm 2 m/s 751 mmHg 78%
    03:00 +29°C° 0 mm 2 m/s 751 mmHg 79%
    04:00 +29°C° 0 mm 3 m/s 751 mmHg 80%
    05:00 +29°C° 0 mm 3 m/s 751 mmHg 80%
    06:00 +30°C° 0 mm 3 m/s 751 mmHg 72%
    07:00 +33°C° 0 mm 4 m/s 752 mmHg 64%
    08:00 +34°C° 0 mm 4 m/s 752 mmHg 56%
    09:00 +36°C° 0 mm 4 m/s 752 mmHg 48%
    10:00 +38°C° 0 mm 4 m/s 752 mmHg 40%
    11:00 +41°C° 0 mm 4 m/s 752 mmHg 31%
    12:00 +42°C° 0 mm 4 m/s 751 mmHg 31%
    13:00 +42°C° 0 mm 5 m/s 750 mmHg 31%
    14:00 +44°C° 0 mm 6 m/s 750 mmHg 31%
    15:00 +40°C° 0 mm 6 m/s 750 mmHg 39%
    16:00 +38°C° 0 mm 6 m/s 750 mmHg 46%
    17:00 +35°C° 0 mm 6 m/s 750 mmHg 54%
    18:00 +34°C° 0 mm 5 m/s 750 mmHg 59%
    19:00 +34°C° 0 mm 5 m/s 751 mmHg 64%
    20:00 +33°C° 0 mm 5 m/s 752 mmHg 69%
    21:00 +32°C° 0 mm 4 m/s 752 mmHg 71%
    22:00 +31°C° 0 mm 3 m/s 752 mmHg 73%
    23:00 +31°C° 0 mm 2 m/s 753 mmHg 74%

    Poimâine, 27 Aprilie, Sâmbătă

    Timp Temperatura Precipitaţii Vânt Presiune Umiditate
    00:00 +31°C° 0 mm 2 m/s 752 mmHg 75%
    01:00 +31°C° 0 mm 2 m/s 751 mmHg 76%
    02:00 +30°C° 0 mm 2 m/s 751 mmHg 76%
    03:00 +30°C° 0 mm 1 m/s 751 mmHg 77%
    04:00 +30°C° 0 mm 1 m/s 751 mmHg 78%
    05:00 +30°C° 0 mm 1 m/s 751 mmHg 79%
    06:00 +31°C° 0 mm 2 m/s 751 mmHg 72%
    07:00 +32°C° 0 mm 2 m/s 752 mmHg 65%
    08:00 +34°C° 0 mm 3 m/s 752 mmHg 58%
    09:00 +36°C° 0 mm 3 m/s 752 mmHg 52%
    10:00 +38°C° 0 mm 4 m/s 752 mmHg 45%
    11:00 +40°C° 0 mm 4 m/s 752 mmHg 38%
    12:00 +40°C° 0 mm 4 m/s 751 mmHg 37%
    13:00 +41°C° 0 mm 5 m/s 750 mmHg 36%
    14:00 +41°C° 0 mm 5 m/s 749 mmHg 34%
    15:00 +40°C° 0 mm 5 m/s 749 mmHg 40%
    16:00 +37°C° 0 mm 5 m/s 749 mmHg 45%
    17:00 +36°C° 0 mm 5 m/s 749 mmHg 51%
    18:00 +35°C° 0 mm 5 m/s 750 mmHg 57%
    19:00 +34°C° 0 mm 4 m/s 751 mmHg 63%
    20:00 +33°C° 0 mm 4 m/s 751 mmHg 69%
    21:00 +33°C° 0 mm 4 m/s 751 mmHg 71%
    22:00 +32°C° 0 mm 4 m/s 752 mmHg 74%
    23:00 +31°C° 0 mm 3 m/s 752 mmHg 77%

    28 Aprilie, Duminică

    Timp Temperatura Precipitaţii Vânt Presiune Umiditate
    00:00 +31°C° 0 mm 3 m/s 751 mmHg 78%
    01:00 +31°C° 0 mm 3 m/s 751 mmHg 80%
    02:00 +31°C° 0 mm 2 m/s 750 mmHg 81%
    03:00 +31°C° 0 mm 3 m/s 750 mmHg 82%
    04:00 +30°C° 0 mm 3 m/s 750 mmHg 82%
    05:00 +30°C° 0 mm 3 m/s 750 mmHg 83%
    06:00 +31°C° 0 mm 3 m/s 751 mmHg 76%
    07:00 +34°C° 0 mm 4 m/s 751 mmHg 69%
    08:00 +35°C° 0 mm 5 m/s 752 mmHg 62%
    09:00 +36°C° 0.1 mm 6 m/s 752 mmHg 59%
    10:00 +36°C° 0.1 mm 6 m/s 751 mmHg 56%
    11:00 +38°C° 0.1 mm 7 m/s 751 mmHg 53%
    12:00 +38°C° 0.2 mm 7 m/s 751 mmHg 52%
    13:00 +38°C° 0.2 mm 7 m/s 750 mmHg 52%
    14:00 +38°C° 0.2 mm 7 m/s 749 mmHg 52%
    15:00 +36°C° 0.1 mm 7 m/s 749 mmHg 55%
    16:00 +35°C° 0.1 mm 7 m/s 749 mmHg 58%
    17:00 +34°C° 0.1 mm 7 m/s 750 mmHg 61%
    18:00 +34°C° 0.1 mm 7 m/s 750 mmHg 64%
    19:00 +33°C° 0.1 mm 7 m/s 751 mmHg 67%
    20:00 +33°C° 0.1 mm 7 m/s 751 mmHg 69%
    21:00 +32°C° 1.2 mm 7 m/s 751 mmHg 71%
    22:00 +32°C° 1.2 mm 7 m/s 751 mmHg 72%
    23:00 +32°C° 1.2 mm 7 m/s 751 mmHg 73%

    29 Aprilie, Luni

    Timp Temperatura Precipitaţii Vânt Presiune Umiditate
    00:00 +32°C° 1.4 mm 7 m/s 750 mmHg 74%
    01:00 +32°C° 1.4 mm 7 m/s 749 mmHg 75%
    02:00 +32°C° 1.4 mm 7 m/s 748 mmHg 76%
    03:00 +30°C° 1.6 mm 7 m/s 748 mmHg 76%
    04:00 +31°C° 1.6 mm 8 m/s 748 mmHg 77%
    05:00 +31°C° 1.6 mm 8 m/s 748 mmHg 77%
    06:00 +32°C° 2.6 mm 9 m/s 749 mmHg 75%
    07:00 +32°C° 2.6 mm 10 m/s 749 mmHg 74%
    08:00 +32°C° 2.6 mm 11 m/s 750 mmHg 72%
    09:00 +32°C° 3.3 mm 11 m/s 750 mmHg 74%
    10:00 +32°C° 3.3 mm 10 m/s 750 mmHg 76%
    11:00 +31°C° 3.3 mm 10 m/s 750 mmHg 77%
    12:00 +32°C° 1.1 mm 10 m/s 749 mmHg 76%
    13:00 +32°C° 1.1 mm 10 m/s 749 mmHg 75%
    14:00 +32°C° 1.1 mm 10 m/s 748 mmHg 73%
    15:00 +32°C° 1.3 mm 9 m/s 748 mmHg 74%
    16:00 +32°C° 1.3 mm 9 m/s 749 mmHg 75%
    17:00 +31°C° 1.3 mm 9 m/s 749 mmHg 75%
    18:00 +31°C° 0.9 mm 8 m/s 749 mmHg 76%
    19:00 +31°C° 0.9 mm 8 m/s 750 mmHg 77%
    20:00 +31°C° 0.9 mm 8 m/s 750 mmHg 77%
    21:00 +31°C° 1 mm 8 m/s 750 mmHg 77%
    22:00 +31°C° 1 mm 8 m/s 750 mmHg 77%
    23:00 +31°C° 1 mm 8 m/s 750 mmHg 78%

    30 Aprilie, Marţi

    Timp Temperatura Precipitaţii Vânt Presiune Umiditate
    00:00 +31°C° 1.6 mm 8 m/s 750 mmHg 79%
    01:00 +31°C° 1.6 mm 8 m/s 749 mmHg 79%
    02:00 +30°C° 1.6 mm 7 m/s 748 mmHg 80%
    03:00 +30°C° 1.8 mm 7 m/s 749 mmHg 80%
    04:00 +31°C° 1.8 mm 8 m/s 749 mmHg 80%
    05:00 +31°C° 1.8 mm 8 m/s 749 mmHg 80%
    06:00 +31°C° 2.3 mm 8 m/s 750 mmHg 80%
    07:00 +31°C° 2.3 mm 8 m/s 750 mmHg 79%
    08:00 +31°C° 2.3 mm 8 m/s 751 mmHg 79%
    09:00 +32°C° 1.1 mm 9 m/s 751 mmHg 76%
    10:00 +33°C° 1.1 mm 9 m/s 751 mmHg 74%
    11:00 +33°C° 1.1 mm 9 m/s 751 mmHg 71%
    12:00 +33°C° 1.1 mm 9 m/s 750 mmHg 71%
    13:00 +33°C° 1.1 mm 9 m/s 750 mmHg 72%
    14:00 +33°C° 1.1 mm 9 m/s 749 mmHg 72%
    15:00 +32°C° 1 mm 9 m/s 749 mmHg 74%
    16:00 +32°C° 1 mm 9 m/s 749 mmHg 76%
    17:00 +31°C° 1 mm 8 m/s 749 mmHg 78%
    18:00 +31°C° 0.4 mm 8 m/s 750 mmHg 78%
    19:00 +31°C° 0.4 mm 9 m/s 751 mmHg 78%
    20:00 +31°C° 0.4 mm 9 m/s 751 mmHg 78%
    21:00 +31°C° 2.9 mm 9 m/s 751 mmHg 79%
    22:00 +31°C° 2.9 mm 9 m/s 751 mmHg 79%
    23:00 +31°C° 2.9 mm 10 m/s 751 mmHg 79%
    Arată mai mult